Home > Weather > Küssnacht > Past weeks

Flag for Switzerland Past Weather in Küssnacht, Schwyz, Switzerland — Yesterday and Last 2 Weeks

Now
63 °F

Overcast.


Feels Like: 63 °F
Forecast: 43 / 57 °F
Wind: 2 mph from South

Location: Altdorf

Current Time: Jun 26, 2016 at 9:16:22 PM

Latest Report: Jun 26, 2016 at 8:00 PM


Visibility: 9 mi

Pressure: 30.09 "Hg

Humidity: 78%

Dew Point: 56 °F

Location of KüssnachtLocation

Past Weather in Küssnacht — Graph

°F

Küssnacht Temperature Yesterday

Maximum temperature yesterday: 74 °F (at 2:00 PM)
Minimum temperature yesterday: 62 °F (at 11:00 PM)
Average temperature yesterday: 67 °F

High & Low Weather Summary for the Past Weeks

 TemperatureHumidityPressure
High87 °F (Jun 23, 5:00 PM)100% (Jun 22, 9:00 AM)30.29 "Hg (Jun 22, 9:00 AM)
Low48 °F (Jun 17, 5:00 AM)47% (Jun 24, 5:00 PM)29.58 "Hg (Jun 15, 3:00 PM)
Average62 °F82%29.96 "Hg
* Reported Jun 11 7:00 PM — Jun 26 7:00 PM, Küssnacht, Weather by CustomWeather, © 2016

Note: Actual official high and low records may vary slightly from our data, if they occured in-between our weather recording intervals... More about our weather records

Advertising

Küssnacht Weather History for the Previous 24 Hours

Scroll right to see more
 ConditionsComfort  
Time TempWeatherWind HumidityBarometerVisibility
7:00 PM
Sun, Jun 26
63 °FMild.2 mph77%30.09 "HgN/A
6:00 PM63 °FMild.5 mph81%30.08 "HgN/A
5:00 PM64 °FOvercast.No wind76%30.08 "Hg9 mi
4:00 PM63 °FMild.3 mph73%30.07 "HgN/A
3:00 PM63 °FMild.3 mph73%30.08 "HgN/A
2:00 PM64 °FOvercast.3 mph73%30.09 "Hg12 mi
1:00 PM63 °FMild.2 mph76%30.10 "HgN/A
12:00 PM62 °FCool.1 mph75%30.10 "HgN/A
11:00 AM61 °FOvercast.3 mph78%30.10 "Hg12 mi
10:00 AM60 °FCool.No wind82%30.10 "HgN/A
9:00 AM59 °FCool.No wind86%30.11 "HgN/A
8:00 AM59 °FOvercast.No wind90%30.10 "Hg12 mi
7:00 AM58 °FCool.No wind90%30.10 "HgN/A
6:00 AM58 °FCool.No wind91%30.09 "HgN/A
5:00 AM58 °FOvercast.1 mph90%30.09 "Hg9 mi
4:00 AM58 °FCool.No wind90%30.10 "HgN/A
3:00 AM58 °FCool.1 mph91%30.11 "HgN/A
2:00 AM58 °FOvercast.3 mph89%30.12 "Hg9 mi
1:00 AM60 °FCool.6 mph80%30.12 "HgN/A
12:00 AM61 °FCool.12 mph84%30.10 "HgN/A
11:00 PM
Sat, Jun 25
62 °FDrizzle. Overcast.5 mph94%30.09 "Hg4 mi
10:00 PM63 °FMild.2 mph91%30.06 "HgN/A
9:00 PM63 °FMild.1 mph90%30.04 "HgN/A
Weather by CustomWeather, © 2016

See weather overviewHow to use our weather pages